{"data":{"norad_id":57878,"epoch":"2026-09-20T08:36:48.138336Z","epoch_age_seconds":146804,"freshness":"FRESH","line1":"1 57878U 23144Q   26263.35889049  .00000528  00000+0  28722-4 0  9993","line2":"2 57878  43.0018 265.4671 0001323 275.2032  84.8669 15.27579217167410","mean_motion":15.27579217,"eccentricity":0.0001323,"inclination_deg":43.0018,"raan_deg":265.4671,"arg_perigee_deg":275.2032,"mean_anomaly_deg":84.8669,"bstar":2.8722e-5,"rev_number":16741,"period_min":94.266797032497,"perigee_km":482.14370539364,"apogee_km":483.95917585503,"semimajor_km":6861.1884406243,"source":"CELESTRAK","updated_at":"2026-09-21T09:00:33.718770Z"}}